小林彗星

P/1997 B1 ( Kobayashi ) 2022

English version
Home page
Updated on October 6, 2021

---------------------------------------------------------------------

・ プロフィール

・ 軌道要素

Perturbed ephemeris below is based on elements from MPC 30063. 

 Epoch = 2459680.50000 TT   T = 2459667.20732 TT
 Peri. =  183.31648         a =     8.5839604 AU
 Node  =  328.88222 J2000.0 e =     0.7604607
 Incl. =   12.33923         q =     2.0561957 AU

・ 光度変化

        m1 = 15.2 + 5 logΔ + 5 log r(t - 30)

---------------------------------------------------------------------

軌道要素はMinor Planet & Comet Ephemeris Serviceで計算したものです。
光度グラフはComet for Windowsで作成したものです。

---------------------------------------------------------------------

Copyright(C) Seiichi Yoshida (comet@aerith.net). All rights reserved.